Overview Statistics Trail Chart Weather Telemetry Raw packets
 

This is the latest recevied weather packets stored in our database for station/object K5SVV. If no packets are shown the sender has not sent any weather packets the latest 10 day(s).

<< 39 40 41 42 43 44 45 >>
Time Temp. Humidity Pressure Rain* Wind** Luminosity Snow
1788393833 33.33° C 53% 1011.2 hPa 0 mm - 32 W/m² -
1788393530 33.89° C 52% 1011.3 hPa 0 mm - 33 W/m² -
1788393226 34.44° C 50% 1011.1 hPa 0 mm - 51 W/m² -
1788392920 35° C 48% 1011.1 hPa 0 mm - 49 W/m² -
1788392615 35° C 47% 1011 hPa 0 mm - 119 W/m² -
1788392314 35° C 47% 1011.3 hPa 0 mm - 148 W/m² -
1788392014 35° C 48% 1011.1 hPa 0 mm - 83 W/m² -
1788391712 35° C 48% 1011.1 hPa 0 mm - 78 W/m² -
1788391407 35° C 48% 1011 hPa 0 mm - 163 W/m² -
1788391106 35° C 49% 1011.1 hPa 0 mm - 182 W/m² -
1788390802 35.56° C 50% 1010.8 hPa 0 mm - 208 W/m² -
1788390497 35.56° C 50% 1011.1 hPa 0 mm - 234 W/m² -
1788390196 35.56° C 49% 1011 hPa 0 mm - 256 W/m² -
1788389891 36.67° C 48% 1011 hPa 0 mm - 292 W/m² -
1788389586 36.67° C 41% 1011 hPa 0 mm - 326 W/m² -
1788389284 36.67° C 41% 1010.8 hPa 0 mm - 312 W/m² -
1788388979 36.67° C 41% 1010.9 hPa 0 mm - 250 W/m² -
1788388676 36.67° C 41% 1010.8 hPa 0 mm - 280 W/m² -
1788388375 36.67° C 41% 1011 hPa 0 mm - 324 W/m² -
1788388068 36.67° C 40% 1010.9 hPa 0 mm - 298 W/m² -
1788387763 37.22° C 41% 1010.8 hPa 0 mm - 372 W/m² -
1788387457 37.22° C 42% 1010.7 hPa 0 mm - 401 W/m² -
1788387156 36.67° C 41% 1011.1 hPa 0 mm - 381 W/m² -
1788386852 37.22° C 41% 1010.8 hPa 0 mm - 393 W/m² -
1788386546 37.22° C 41% 1011 hPa 0 mm - 432 W/m² -

* Rain latest hour (hover to see other rain measurements)
** Current wind speed in m/s (hover to see current wind gust speed)